Starlink 30866

operational
NORAD ID: 58237 Int'l Des: 2023-171 Owner: SPXS Country: US Constellation: starlink
LEOCIRCULAR

Über Starlink 30866

Beschreibung wird geladen...

Live-Position

3D-Globus wird geladen...

Nächste Überflüge

Höhenverlauf

Altitude vs Time

uPlot chart will show altitude changes over time

Zweizeiliger Elementsatz

1 58237U 23171H 25304.16933889 -.00000127 00000-0 56411-5 0 9993
2 58237 43.0026 269.6499 0001119 273.4843 86.5872 15.02538154110248
Epoch: 31. Okt. 2025 • Age: 37 hours

Aktueller Status

Höhe 560.3 km
Geschwindigkeit 7.59 km/s
Subsatellitenpunkt 29.66°N, 102.28°E
Startdatum 8. Nov. 2023
Alter 1.9 years
Typ internet

Technische Details

Klassifizierung Payload
Masse 730.00 kg
Trockenmasse 700.00 kg
Gesamtmasse 730.00 kg
Länge 0.30 m
Durchmesser 4.10 m
Spannweite 29.00 m
Form Box + pan
Hersteller SPXS
Bus-Typ Starlink V2M
Phasenstatus In Orbit
Besitzer/Staat SPXS/US

Große Konstellationen

Loading constellations...